FW3327 Weather Reports


Display with metric or nautical units.
time (UTC)temp
F
wind
direction
speed
MPH
gust
MPH
rain 1hr
in
rain 24hr
in
rain mn
in
humidity
%
barometer
mb
20260505052506 57 283 1.0 2.0 0.00 0.00 0.00 65 1006.6
20260505052006 58 284 0.0 4.0 0.00 0.00 0.00 66 1006.3
20260505051515 58 339 0.0 2.0 0.00 0.00 0.00 65 1006.4
20260505051005 59 295 0.0 0.0 0.00 0.00 0.00 64 1006.4
20260505050508 59 295 0.0 0.0 0.00 0.00 0.00 63 1006.3
20260505041506 63 279 1.0 4.0 0.00 0.00 0.00 58 1005.7
20260505041003 64 242 0.0 2.0 0.00 0.00 0.00 57 1005.6
20260505040503 64 241 0.0 3.0 0.00 0.00 0.00 56 1005.5
20260505040003 64 246 0.0 5.0 0.00 0.00 0.00 56 1005.4
20260505035504 65 237 1.0 5.0 0.00 0.00 0.00 55 1005.3
20260505035002 66 217 1.0 3.0 0.00 0.00 0.00 56 1005.2
20260505034501 66 321 1.0 3.0 0.00 0.00 0.00 54 1005.1
20260505034002 67 255 1.0 6.0 0.00 0.00 0.00 54 1005.0
20260505033503 67 188 2.0 6.0 0.00 0.00 0.00 52 1004.9
20260505033002 68 286 3.0 6.0 0.00 0.00 0.00 52 1004.9
20260505032501 69 249 0.0 4.0 0.00 0.00 0.00 51 1004.9
20260505032100 69 203 0.0 4.0 0.00 0.00 0.00 51 1004.8
20260505031603 70 180 2.0 5.0 0.00 0.00 0.00 50 1004.7
20260505031100 71 204 3.0 6.0 0.00 0.00 0.00 49 1004.7
20260505030601 72 200 2.0 6.0 0.00 0.00 0.00 48 1004.5
20260505030100 72 225 1.0 5.0 0.00 0.00 0.00 48 1004.5
20260505025600 73 271 1.0 3.0 0.00 0.00 0.00 47 1004.5
20260505025059 73 228 0.0 2.0 0.00 0.00 0.00 47 1004.5
20260505024607 73 202 0.0 3.0 0.00 0.00 0.00 46 1004.4
20260505024101 74 213 0.0 3.0 0.00 0.00 0.00 46 1004.4
20260505023559 74 223 0.0 3.0 0.00 0.00 0.00 46 1004.4
20260505023104 74 186 0.0 3.0 0.00 0.00 0.00 46 1004.4
20260505022559 74 179 0.0 3.0 0.00 0.00 0.00 46 1004.3
20260505022058 74 178 0.0 5.0 0.00 0.00 0.00 46 1004.3
20260505021559 74 196 2.0 6.0 0.00 0.00 0.00 46 1004.3
20260505021058 74 169 2.0 6.0 0.00 0.00 0.00 45 1004.2
20260505020557 75 114 2.0 6.0 0.00 0.00 0.00 45 1004.3
20260505020059 75 187 1.0 7.0 0.00 0.00 0.00 45 1004.3
20260505015557 75 191 2.0 4.0 0.00 0.00 0.00 45 1004.3
20260505015059 75 107 1.0 5.0 0.00 0.00 0.00 45 1004.2
20260505014557 75 171 2.0 5.0 0.00 0.00 0.00 45 1004.2
20260505014059 75 181 2.0 6.0 0.00 0.00 0.00 46 1004.3
20260505013556 75 163 2.0 8.0 0.00 0.00 0.00 45 1004.3
20260505013121 75 157 3.0 8.0 0.00 0.00 0.00 44 1004.2
20260505012657 76 181 3.0 6.0 0.00 0.00 0.00 45 1004.2
20260505012058 76 203 1.0 8.0 0.00 0.00 0.00 46 1004.3
20260505011613 76 168 4.0 10.0 0.00 0.00 0.00 45 1004.5
20260505011055 76 124 1.0 10.0 0.00 0.00 0.00 46 1004.4
20260505010555 76 150 1.0 9.0 0.00 0.00 0.00 46 1004.4
20260505010110 76 188 3.0 9.0 0.00 0.00 0.00 45 1004.5
20260505005555 76 199 3.0 6.0 0.00 0.00 0.00 45 1004.5
20260505005055 76 188 1.0 8.0 0.00 0.00 0.00 45 1004.5
20260505004555 77 173 3.0 9.0 0.00 0.00 0.00 45 1004.6
20260505004056 77 198 3.0 8.0 0.00 0.00 0.00 45 1004.6
20260505003558 77 197 3.0 7.0 0.00 0.00 0.00 46 1004.6
20260505003102 77 232 2.0 7.0 0.00 0.00 0.00 45 1004.6
20260505002556 77 188 3.0 8.0 0.00 0.00 0.00 44 1004.6
20260505002054 77 237 4.0 7.0 0.00 0.00 0.00 44 1004.6
20260505001554 77 206 2.0 8.0 0.00 0.00 0.00 45 1004.6
20260505001054 77 242 3.0 8.0 0.00 0.00 0.00 45 1004.6
20260505000554 78 213 3.0 6.0 0.00 0.00 0.00 45 1004.7
20260505000100 78 188 2.0 9.0 0.00 0.00 0.00 44 1004.7
20260504235556 78 191 4.0 9.0 0.00 0.00 0.00 44 1004.7
20260504235058 78 185 4.0 8.0 0.00 0.00 0.00 44 1004.7
20260504234552 78 247 3.0 7.0 0.00 0.00 0.00 44 1004.7
20260504234053 78 144 3.0 7.0 0.00 0.00 0.00 43 1004.8
20260504233554 78 182 4.0 8.0 0.00 0.00 0.00 43 1004.8
20260504233100 78 216 1.0 9.0 0.00 0.00 0.00 44 1004.9
20260504232552 78 226 2.0 8.0 0.00 0.00 0.00 44 1004.9
20260504232051 78 184 2.0 10.0 0.00 0.00 0.00 44 1004.9
20260504231651 79 172 3.0 10.0 0.00 0.00 0.00 44 1004.9
20260504231050 79 183 2.0 8.0 0.00 0.00 0.00 44 1004.9
20260504230551 78 232 2.0 7.0 0.00 0.00 0.00 44 1005.0
20260504230058 78 202 2.0 7.0 0.00 0.00 0.00 44 1005.0
20260504225549 78 173 4.0 7.0 0.00 0.00 0.00 44 1005.0
20260504225049 78 203 1.0 6.0 0.00 0.00 0.00 45 1005.1
20260504224546 77 242 2.0 8.0 0.00 0.00 0.00 45 1005.2
20260504224046 77 222 3.0 8.0 0.00 0.00 0.00 45 1005.2
20260504223545 77 170 2.0 6.0 0.00 0.00 0.00 46 1005.4
20260504223052 76 216 3.0 6.0 0.00 0.00 0.00 46 1005.5
20260504222542 75 247 2.0 7.0 0.00 0.00 0.00 48 1005.5
20260504222040 75 293 1.0 5.0 0.00 0.00 0.00 47 1005.5
20260504221538 74 219 2.0 5.0 0.00 0.00 0.00 48 1005.5
20260504221038 74 316 1.0 7.0 0.00 0.00 0.00 48 1005.5
20260504220535 73 188 2.0 7.0 0.00 0.00 0.00 50 1005.6
20260504220041 72 10 1.0 6.0 0.00 0.00 0.00 52 1005.8
20260504215533 72 31 3.0 6.0 0.00 0.00 0.00 51 1005.7
20260504215034 72 69 0.0 9.0 0.00 0.00 0.00 51 1005.8
20260504214541 72 81 4.0 9.0 0.00 0.00 0.00 52 1005.8
20260504214031 72 254 2.0 7.0 0.00 0.00 0.00 52 1005.8
20260504213533 71 121 5.0 8.0 0.00 0.00 0.00 53 1005.8
20260504213034 71 44 1.0 8.0 0.00 0.00 0.00 52 1006.0
20260504212528 71 110 4.0 8.0 0.00 0.00 0.00 53 1006.0
20260504212031 71 63 0.0 8.0 0.00 0.00 0.00 53 1006.1
20260504211535 71 82 2.0 6.0 0.00 0.00 0.00 53 1006.2
20260504211026 70 114 0.0 9.0 0.00 0.00 0.00 54 1006.4
20260504210526 70 100 4.0 9.0 0.00 0.00 0.00 54 1006.5
20260504210025 70 95 2.0 8.0 0.00 0.00 0.00 53 1006.6
20260504205524 70 92 4.0 8.0 0.00 0.00 0.00 56 1006.7
20260504205024 69 117 2.0 5.0 0.00 0.00 0.00 56 1006.7
20260504204523 68 126 0.0 5.0 0.00 0.00 0.00 57 1006.8
20260504204020 67 67 1.0 6.0 0.00 0.00 0.00 57 1006.9
20260504203521 67 95 2.0 8.0 0.00 0.00 0.00 57 1006.9
20260504203022 67 84 5.0 8.0 0.00 0.00 0.00 57 1007.0
20260504202620 67 40 0.0 6.0 0.00 0.00 0.00 57 1007.0
20260504202019 67 84 3.0 9.0 0.00 0.00 0.00 58 1007.1
20260504201517 67 81 5.0 9.0 0.00 0.00 0.00 58 1007.1
20260504201018 66 38 1.0 9.0 0.00 0.00 0.00 58 1007.2
20260504200516 66 114 3.0 9.0 0.00 0.00 0.00 60 1007.3
20260504200016 66 65 3.0 9.0 0.00 0.00 0.00 58 1007.3
20260504195515 66 103 2.0 8.0 0.00 0.00 0.00 59 1007.3
20260504195017 66 65 3.0 9.0 0.00 0.00 0.00 57 1007.4
20260504194515 66 105 3.0 9.0 0.00 0.00 0.00 56 1007.3
20260504194017 67 68 4.0 8.0 0.00 0.00 0.00 56 1007.3
20260504193514 66 171 3.0 7.0 0.00 0.00 0.00 58 1007.5
20260504193020 66 138 3.0 10.0 0.00 0.00 0.00 58 1007.5
20260504192512 65 98 6.0 10.0 0.00 0.00 0.00 58 1007.5
20260504192014 66 107 3.0 7.0 0.00 0.00 0.00 56 1007.6
20260504191515 66 114 1.0 6.0 0.00 0.00 0.00 56 1007.6
20260504191011 66 112 1.0 7.0 0.00 0.00 0.00 57 1007.7
20260504190511 65 119 2.0 6.0 0.00 0.00 0.00 57 1007.7
20260504190012 65 71 0.0 6.0 0.00 0.00 0.00 56 1007.8
20260504185512 65 85 0.0 6.0 0.00 0.00 0.00 56 1007.8
20260504185015 64 200 2.0 5.0 0.00 0.00 0.00 59 1007.8
20260504184506 63 138 1.0 6.0 0.00 0.00 0.00 59 1007.8
20260504184007 63 144 2.0 6.0 0.00 0.00 0.00 59 1007.9
20260504183507 63 50 2.0 9.0 0.00 0.00 0.00 58 1007.9
20260504183005 64 71 3.0 9.0 0.00 0.00 0.00 59 1007.9
20260504182504 63 132 1.0 4.0 0.00 0.00 0.00 59 1007.9
20260504182003 63 243 0.0 7.0 0.00 0.00 0.00 58 1007.8
20260504181503 63 138 1.0 6.0 0.00 0.00 0.00 58 1007.8
20260504181101 63 211 1.0 4.0 0.00 0.00 0.00 59 1007.8
20260504180604 63 99 1.0 3.0 0.00 0.00 0.00 60 1007.9
20260504180059 62 142 0.0 3.0 0.00 0.00 0.00 61 1007.9
20260504175558 62 128 1.0 4.0 0.00 0.00 0.00 60 1008.0
20260504175056 62 126 1.0 4.0 0.00 0.00 0.00 61 1007.9
20260504174556 61 180 1.0 5.0 0.00 0.00 0.00 61 1007.9
20260504174055 61 207 2.0 5.0 0.00 0.00 0.00 61 1007.9
20260504173554 61 256 0.0 4.0 0.00 0.00 0.00 61 1007.9
20260504173055 61 202 0.0 3.0 0.00 0.00 0.00 62 1007.8
20260504172553 60 200 0.0 3.0 0.00 0.00 0.00 63 1007.8
20260504172054 60 225 0.0 3.0 0.00 0.00 0.00 62 1007.8
20260504171557 60 240 0.0 7.0 0.00 0.00 0.00 63 1007.7
20260504171049 60 246 3.0 7.0 0.00 0.00 0.00 63 1007.7
20260504170554 60 264 4.0 7.0 0.00 0.00 0.00 63 1007.6
20260504151031 60 159 1.0 3.0 0.00 0.00 0.00 63 1007.6
20260504150529 59 189 1.0 3.0 0.00 0.00 0.00 64 1007.4
20260504141014 55 163 1.0 6.0 0.00 0.00 0.00 70 1006.7
20260504140513 55 224 2.0 5.0 0.00 0.00 0.00 70 1006.7
20260504130604 54 294 0.0 4.0 0.00 0.00 0.00 70 1005.8
20260504120107 55 216 0.0 6.0 0.00 0.00 0.00 70 1004.6
20260504110547 55 320 0.0 1.0 0.00 0.00 0.00 70 1004.0
20260504100535 55 284 1.0 3.0 0.00 0.00 0.00 70 1003.2
20260504100135 55 284 1.0 3.0 0.00 0.00 0.00 69 1003.0
20260504081532 57 265 0.0 0.0 0.00 0.00 0.00 68 1002.7
20260504081022 57 265 0.0 0.0 0.00 0.00 0.00 67 1002.7
20260504080523 58 265 0.0 0.0 0.00 0.00 0.00 68 1002.7